Location: Unspecified
(0.0000°N, 0.0000°E)
Time: 18:53:14
(UTC+00:00)

Vanguard 2 - Pass Details

Date: 20 April 2026
Orbit: 553 x 2895 km, 32.9° (Epoch: 17 May)

Event Time Altitude Azimuth Distance (km) Brightness Sun altitude
Rises 18:58:00 0° 293° (WNW) 3,974 13.0 -14.5°
Reaches altitude 10° 19:00:20 10° 289° (WNW) 3,259 12.1 -15.0°
Maximum altitude 19:08:44 58° 211° (SSW) 2,017 9.7 -17.1°
Enters shadow 19:20:41 15° 137° (SE) 4,665 11.0 -20.0°
